Weather History for KGYB - March, 2013

Change the Weather History Date:

Friday, March 8, 2013

  Actual Average (KAUS) Record (KAUS)
Temperature  
Mean Temperature 60 °F 57 °F  
Max Temperature 68 °F 70 °F 88 °F (1951)
Min Temperature 51 °F 44 °F 26 °F (2008)
Degree Days  
Heating Degree Days 6 9  
Month to date heating degree days 80  
Since 1 July heating degree days 1695  
Cooling Degree Days 0 1  
Month to date cooling degree days 8  
Year to date cooling degree days 24  
Growing Degree Days 10 (Base 50)    
Moisture  
Dew Point 54 °F    
Average Humidity 78    
Maximum Humidity 94    
Minimum Humidity 64    
Precipitation  
Precipitation 0.00 in 0.08 in 0.58 in (2014)
Month to date precipitation 0.68  
Year to date precipitation 5.19  
Snow  
Snow 0.00 in - - ()
Month to date snowfall  
Since 1 July snowfall  
Snow Depth -    
Sea Level Pressure  
Sea Level Pressure 30.14 in    
Wind  
Wind Speed 7 mph (SE)    
Max Wind Speed 15 mph    
Max Gust Speed 22 mph    
Visibility 10 miles    
Events Rain    
T = Trace of Precipitation, MM = Missing Value Source: NWS Daily Summary

Daily Weather History Graph

Daily Weather History Graph

Search for Another Location

Airport or City:

Trip Planner

Search our weather history database for the weather conditions in past years. The results will help you decide how hot, cold, wet, or windy it might be!

Date:

Astronomy

Mar. 08, 2013 Rise Set
Actual Time 6:45 AM CST 6:31 PM CST
Civil Twilight 6:21 AM CST 6:55 PM CST
Nautical Twilight 5:54 AM CST 7:23 PM CST
Astronomical Twilight 5:26 AM CST 7:51 PM CST
Moon 4:19 AM CST (3/8) 3:38 PM CST (3/8)
Length of Visible Light 12h 34m
Length of Day
11h 46m
Waning Crescent, 11% of the Moon is Illuminated
Mar 8
Waning Crescent
Mar 11
New
Mar 19
First Quarter
Mar 27
Full
Apr 2
Last Quarter

Hourly Weather History & Observations

Time (CST) Temp. Dew Point Humidity Pressure Visibility Wind Dir Wind Speed Gust Speed Precip Events Conditions
12:15 AM 53.6 °F 46.4 °F 77% 30.19 in 10.0 mi SE 6.9 mph - N/A   Clear
12:35 AM 53.6 °F 46.4 °F 77% 30.20 in 10.0 mi SE 5.8 mph - N/A   Clear
12:55 AM 51.8 °F 46.4 °F 82% 30.19 in 10.0 mi SE 6.9 mph - N/A   Clear
1:15 AM 53.6 °F 46.4 °F 77% 30.18 in 10.0 mi SE 6.9 mph - N/A   Clear
1:55 AM 51.8 °F 46.4 °F 82% 30.18 in 10.0 mi SE 6.9 mph - N/A   Clear
2:15 AM 51.8 °F 48.2 °F 88% 30.18 in 10.0 mi SE 4.6 mph - N/A   Clear
2:35 AM 51.8 °F 48.2 °F 88% 30.16 in 10.0 mi SE 5.8 mph - N/A   Clear
2:55 AM 51.8 °F 48.2 °F 88% 30.15 in 10.0 mi SE 3.5 mph - N/A   Clear
3:15 AM 51.8 °F 50.0 °F 94% 30.15 in 10.0 mi ESE 4.6 mph - N/A   Clear
3:55 AM 51.8 °F 50.0 °F 94% 30.15 in 10.0 mi Calm Calm - N/A   Mostly Cloudy
4:15 AM 53.6 °F 50.0 °F 88% 30.14 in 10.0 mi ESE 3.5 mph - N/A   Overcast
4:35 AM 53.6 °F 50.0 °F 88% 30.14 in 10.0 mi Calm Calm - N/A   Overcast
4:55 AM 53.6 °F 50.0 °F 88% 30.14 in 10.0 mi Calm Calm - N/A   Overcast
5:15 AM 55.4 °F 51.8 °F 88% 30.14 in 10.0 mi Calm Calm - N/A   Overcast
5:55 AM 55.4 °F 51.8 °F 88% 30.15 in 10.0 mi SE 4.6 mph - N/A   Overcast
6:35 AM 55.4 °F 51.8 °F 88% 30.16 in 10.0 mi ESE 5.8 mph - N/A   Overcast
6:55 AM 55.4 °F 51.8 °F 88% 30.17 in 10.0 mi SE 5.8 mph - N/A   Overcast
7:15 AM 57.2 °F 53.6 °F 88% 30.17 in 10.0 mi ESE 5.8 mph - N/A   Overcast
7:35 AM 57.2 °F 53.6 °F 88% 30.17 in 10.0 mi SE 5.8 mph - N/A   Overcast
7:55 AM 57.2 °F 53.6 °F 88% 30.17 in 10.0 mi SE 6.9 mph - N/A   Overcast
8:15 AM 59.0 °F 53.6 °F 82% 30.18 in 10.0 mi SE 8.1 mph - N/A   Overcast
8:35 AM 59.0 °F 53.6 °F 82% 30.19 in 10.0 mi SE 6.9 mph - N/A   Overcast
8:55 AM 59.0 °F 53.6 °F 82% 30.19 in 10.0 mi SE 6.9 mph - N/A   Overcast
9:15 AM 59.0 °F 53.6 °F 82% 30.19 in 10.0 mi SE 8.1 mph - N/A   Overcast
9:35 AM 60.8 °F 53.6 °F 77% 30.18 in 10.0 mi SE 9.2 mph - N/A   Overcast
9:55 AM 60.8 °F 55.4 °F 82% 30.19 in 10.0 mi SE 6.9 mph - N/A   Overcast
10:15 AM 62.6 °F 55.4 °F 77% 30.20 in 10.0 mi SE 6.9 mph - N/A   Overcast
10:35 AM 62.6 °F 55.4 °F 77% 30.20 in 7.0 mi SE 5.8 mph - N/A Rain Rain
10:55 AM 62.6 °F 55.4 °F 77% 30.20 in 10.0 mi SE 6.9 mph - N/A   Overcast
11:15 AM 62.6 °F 55.4 °F 77% 30.20 in 10.0 mi SE 8.1 mph 17.3 mph N/A   Overcast
11:35 AM 62.6 °F 55.4 °F 77% 30.19 in 10.0 mi SE 10.4 mph 16.1 mph N/A   Overcast
11:55 AM 64.4 °F 57.2 °F 77% 30.18 in 10.0 mi SE 11.5 mph 17.3 mph N/A   Overcast
12:15 PM 66.2 °F 57.2 °F 73% 30.16 in 10.0 mi SE 15.0 mph 19.6 mph N/A   Overcast
12:35 PM 66.2 °F 57.2 °F 73% 30.16 in 10.0 mi SE 11.5 mph 18.4 mph N/A   Overcast
12:55 PM 66.2 °F 57.2 °F 73% 30.16 in 10.0 mi SE 10.4 mph 16.1 mph N/A   Overcast
1:15 PM 66.2 °F 57.2 °F 73% 30.15 in 10.0 mi SSE 8.1 mph - N/A   Overcast
1:35 PM 66.2 °F 57.2 °F 73% 30.14 in 10.0 mi SSE 11.5 mph 16.1 mph N/A   Overcast
1:55 PM 66.2 °F 57.2 °F 73% 30.13 in 10.0 mi SE 10.4 mph - N/A   Overcast
2:15 PM 66.2 °F 57.2 °F 73% 30.12 in 10.0 mi SE 9.2 mph 17.3 mph N/A   Overcast
2:35 PM 68.0 °F 59.0 °F 73% 30.12 in 10.0 mi SE 10.4 mph - N/A   Overcast
2:55 PM 68.0 °F 59.0 °F 73% 30.12 in 10.0 mi SE 9.2 mph - N/A   Overcast
3:15 PM 68.0 °F 57.2 °F 68% 30.11 in 10.0 mi SE 12.7 mph - N/A   Mostly Cloudy
3:35 PM 68.0 °F 57.2 °F 68% 30.11 in 10.0 mi SSE 10.4 mph 19.6 mph N/A   Scattered Clouds
3:55 PM 68.0 °F 57.2 °F 68% 30.11 in 10.0 mi SE 10.4 mph 16.1 mph N/A   Overcast
4:15 PM 68.0 °F 57.2 °F 68% 30.10 in 10.0 mi SE 10.4 mph 17.3 mph N/A   Overcast
4:35 PM 68.0 °F 55.4 °F 64% 30.12 in 10.0 mi SSE 9.2 mph - N/A   Mostly Cloudy
4:55 PM 68.0 °F 55.4 °F 64% 30.11 in 10.0 mi SE 11.5 mph 17.3 mph N/A   Mostly Cloudy
5:15 PM 68.0 °F 55.4 °F 64% 30.11 in 10.0 mi SE 10.4 mph 19.6 mph N/A   Scattered Clouds
5:35 PM 68.0 °F 55.4 °F 64% 30.09 in 10.0 mi SE 15.0 mph 21.9 mph N/A   Mostly Cloudy
5:55 PM 66.2 °F 55.4 °F 68% 30.08 in 10.0 mi SE 12.7 mph 18.4 mph N/A   Scattered Clouds
6:15 PM 66.2 °F 55.4 °F 68% 30.08 in 10.0 mi SE 12.7 mph 18.4 mph N/A   Scattered Clouds
6:35 PM 66.2 °F 55.4 °F 68% 30.06 in 10.0 mi SE 12.7 mph 21.9 mph N/A   Scattered Clouds
6:55 PM 64.4 °F 55.4 °F 73% 30.07 in 10.0 mi SE 10.4 mph 17.3 mph N/A   Clear
7:15 PM 64.4 °F 55.4 °F 73% 30.07 in 10.0 mi SE 11.5 mph 17.3 mph N/A   Scattered Clouds
7:35 PM 64.4 °F 55.4 °F 73% 30.08 in 10.0 mi SE 9.2 mph 16.1 mph N/A   Overcast
7:55 PM 64.4 °F 55.4 °F 73% 30.10 in 10.0 mi SSE 11.5 mph 20.7 mph N/A   Mostly Cloudy
8:15 PM 64.4 °F 55.4 °F 73% 30.12 in 10.0 mi SSE 9.2 mph - N/A   Scattered Clouds
8:35 PM 64.4 °F 55.4 °F 73% 30.12 in 10.0 mi SSE 10.4 mph 16.1 mph N/A   Scattered Clouds
8:55 PM 64.4 °F 55.4 °F 73% 30.12 in 10.0 mi SSE 6.9 mph - N/A   Scattered Clouds
9:15 PM 62.6 °F 53.6 °F 72% 30.12 in 10.0 mi SSE 6.9 mph - N/A   Scattered Clouds
9:35 PM 62.6 °F 53.6 °F 72% 30.11 in 10.0 mi SSE 9.2 mph - N/A   Scattered Clouds
9:55 PM 62.6 °F 53.6 °F 72% 30.11 in 10.0 mi SSE 6.9 mph - N/A   Scattered Clouds
10:15 PM 60.8 °F 55.4 °F 82% 30.11 in 10.0 mi SE 8.1 mph - N/A   Scattered Clouds
10:35 PM 60.8 °F 55.4 °F 82% 30.11 in 10.0 mi SSE 8.1 mph - N/A   Scattered Clouds
10:55 PM 60.8 °F 55.4 °F 82% 30.10 in 10.0 mi SE 8.1 mph - N/A   Mostly Cloudy
11:15 PM 60.8 °F 55.4 °F 82% 30.10 in 10.0 mi SSE 8.1 mph - N/A   Mostly Cloudy
11:35 PM 60.8 °F 55.4 °F 82% 30.09 in 10.0 mi SE 8.1 mph - N/A   Overcast
11:55 PM 60.8 °F 55.4 °F 82% 30.08 in 10.0 mi SSE 9.2 mph - N/A   Overcast